Time,TemperatureF,DewpointF,PressureIn,WindDirection,WindDirectionDegrees,WindSpeedMPH,WindSpeedGustMPH,Humidity,HourlyPrecipIn,Conditions,Clouds,dailyrainin,SoftwareType,DateUTC
2013-09-29 00:22:00,62.0,60.0,-100.00,North,-999,-999.0,-999.0,92,-99.99,,,-99.99,,2013-09-29 05:22:00,
2013-09-29 00:34:00,62.0,60.0,-100.00,North,-999,-999.0,-999.0,92,-99.99,,,-99.99,,2013-09-29 05:34:00,
2013-09-29 00:43:00,62.0,60.0,-100.00,North,-999,-999.0,-999.0,92,-99.99,,,-99.99,,2013-09-29 05:43:00,
2013-09-29 00:52:00,62.0,60.0,-100.00,North,-999,-999.0,-999.0,92,-99.99,,,-99.99,,2013-09-29 05:52:00,
2013-09-29 01:22:00,62.0,59.0,-100.00,North,-999,-999.0,-999.0,90,-99.99,,,-99.99,,2013-09-29 06:22:00,
2013-09-29 01:32:00,62.0,59.0,-100.00,North,-999,-999.0,-999.0,90,-99.99,,,-99.99,,2013-09-29 06:32:00,
2013-09-29 01:42:00,62.0,59.0,-100.00,North,-999,-999.0,-999.0,90,-99.99,,,-99.99,,2013-09-29 06:42:00,
2013-09-29 01:52:00,62.0,59.0,-100.00,North,-999,-999.0,-999.0,90,-99.99,,,-99.99,,2013-09-29 06:52:00,
2013-09-29 02:22:00,61.0,59.0,-100.00,North,-999,-999.0,-999.0,94,-99.99,,,-99.99,,2013-09-29 07:22:00,
2013-09-29 02:32:00,61.0,59.0,-100.00,North,-999,-999.0,-999.0,94,-99.99,,,-99.99,,2013-09-29 07:32:00,
2013-09-29 02:43:00,61.0,59.0,-100.00,North,-999,-999.0,-999.0,94,-99.99,,,-99.99,,2013-09-29 07:43:00,
2013-09-29 02:52:00,61.0,59.0,-100.00,North,-999,-999.0,-999.0,94,-99.99,,,-99.99,,2013-09-29 07:52:00,
2013-09-29 03:22:00,60.0,59.0,-100.00,North,-999,-999.0,-999.0,95,-99.99,,,-99.99,,2013-09-29 08:22:00,
2013-09-29 03:32:00,60.0,59.0,-100.00,North,-999,-999.0,-999.0,95,-99.99,,,-99.99,,2013-09-29 08:32:00,
2013-09-29 03:42:00,60.0,59.0,-100.00,North,-999,-999.0,-999.0,95,-99.99,,,-99.99,,2013-09-29 08:42:00,
2013-09-29 03:52:00,60.0,59.0,-100.00,North,-999,-999.0,-999.0,95,-99.99,,,-99.99,,2013-09-29 08:52:00,
2013-09-29 04:22:00,59.0,58.0,-100.00,North,-999,-999.0,-999.0,96,-99.99,,,-99.99,,2013-09-29 09:22:00,
2013-09-29 04:33:00,59.0,58.0,-100.00,North,-999,-999.0,-999.0,96,-99.99,,,-99.99,,2013-09-29 09:33:00,
2013-09-29 04:43:00,59.0,58.0,-100.00,North,-999,-999.0,-999.0,96,-99.99,,,-99.99,,2013-09-29 09:43:00,
2013-09-29 04:53:00,59.0,58.0,-100.00,North,-999,-999.0,-999.0,96,-99.99,,,-99.99,,2013-09-29 09:53:00,
2013-09-29 05:23:00,59.0,58.0,-100.00,North,-999,-999.0,-999.0,97,-99.99,,,-99.99,,2013-09-29 10:23:00,
2013-09-29 05:32:00,59.0,58.0,-100.00,North,-999,-999.0,-999.0,97,-99.99,,,-99.99,,2013-09-29 10:32:00,
2013-09-29 05:43:00,59.0,58.0,-100.00,North,-999,-999.0,-999.0,97,-99.99,,,-99.99,,2013-09-29 10:43:00,
2013-09-29 05:53:00,59.0,58.0,-100.00,North,-999,-999.0,-999.0,97,-99.99,,,-99.99,,2013-09-29 10:53:00,
2013-09-29 06:22:00,59.0,58.0,-100.00,North,-999,-999.0,-999.0,95,-99.99,,,-99.99,,2013-09-29 11:22:00,
2013-09-29 06:33:00,59.0,58.0,-100.00,North,-999,-999.0,-999.0,95,-99.99,,,-99.99,,2013-09-29 11:33:00,
2013-09-29 06:42:00,59.0,58.0,-100.00,North,-999,-999.0,-999.0,95,-99.99,,,-99.99,,2013-09-29 11:42:00,
2013-09-29 06:52:00,59.0,58.0,-100.00,North,-999,-999.0,-999.0,95,-99.99,,,-99.99,,2013-09-29 11:52:00,
2013-09-29 07:21:00,59.0,58.0,-100.00,North,-999,-999.0,-999.0,95,-99.99,,,-99.99,,2013-09-29 12:21:00,
2013-09-29 07:32:00,59.0,58.0,-100.00,North,-999,-999.0,-999.0,95,-99.99,,,-99.99,,2013-09-29 12:32:00,
2013-09-29 07:42:00,59.0,58.0,-100.00,North,-999,-999.0,-999.0,95,-99.99,,,-99.99,,2013-09-29 12:42:00,
2013-09-29 07:52:00,59.0,58.0,-100.00,North,-999,-999.0,-999.0,95,-99.99,,,-99.99,,2013-09-29 12:52:00,
2013-09-29 08:22:00,62.0,57.0,-100.00,North,-999,-999.0,-999.0,83,-99.99,,,-99.99,,2013-09-29 13:22:00,
2013-09-29 08:32:00,62.0,57.0,-100.00,North,-999,-999.0,-999.0,83,-99.99,,,-99.99,,2013-09-29 13:32:00,
2013-09-29 08:42:00,62.0,57.0,-100.00,North,-999,-999.0,-999.0,83,-99.99,,,-99.99,,2013-09-29 13:42:00,
2013-09-29 08:53:00,62.0,57.0,-100.00,North,-999,-999.0,-999.0,83,-99.99,,,-99.99,,2013-09-29 13:53:00,
2013-09-29 09:22:00,66.0,56.0,-100.00,North,-999,-999.0,-999.0,71,-99.99,,,-99.99,,2013-09-29 14:22:00,
2013-09-29 09:32:00,66.0,56.0,-100.00,North,-999,-999.0,-999.0,71,-99.99,,,-99.99,,2013-09-29 14:32:00,
2013-09-29 09:43:00,66.0,56.0,-100.00,North,-999,-999.0,-999.0,71,-99.99,,,-99.99,,2013-09-29 14:43:00,
2013-09-29 09:52:00,66.0,56.0,-100.00,North,-999,-999.0,-999.0,71,-99.99,,,-99.99,,2013-09-29 14:52:00,
2013-09-29 10:22:00,67.0,58.0,-100.00,North,-999,-999.0,-999.0,71,-99.99,,,-99.99,,2013-09-29 15:22:00,
2013-09-29 10:35:00,67.0,58.0,-100.00,North,-999,-999.0,-999.0,71,-99.99,,,-99.99,,2013-09-29 15:35:00,
2013-09-29 10:45:00,67.0,58.0,-100.00,North,-999,-999.0,-999.0,71,-99.99,,,-99.99,,2013-09-29 15:45:00,
2013-09-29 10:54:00,67.0,58.0,-100.00,North,-999,-999.0,-999.0,71,-99.99,,,-99.99,,2013-09-29 15:54:00,
2013-09-29 11:24:00,70.0,58.0,-100.00,North,-999,-999.0,-999.0,66,-99.99,,,-99.99,,2013-09-29 16:24:00,
2013-09-29 11:33:00,70.0,58.0,-100.00,North,-999,-999.0,-999.0,66,-99.99,,,-99.99,,2013-09-29 16:33:00,
2013-09-29 11:44:00,70.0,58.0,-100.00,North,-999,-999.0,-999.0,66,-99.99,,,-99.99,,2013-09-29 16:44:00,
2013-09-29 11:54:00,70.0,58.0,-100.00,North,-999,-999.0,-999.0,66,-99.99,,,-99.99,,2013-09-29 16:54:00,
2013-09-29 12:24:00,74.0,59.0,-100.00,North,-999,-999.0,-999.0,58,-99.99,,,-99.99,,2013-09-29 17:24:00,
2013-09-29 12:34:00,74.0,59.0,-100.00,North,-999,-999.0,-999.0,58,-99.99,,,-99.99,,2013-09-29 17:34:00,
2013-09-29 12:43:00,74.0,59.0,-100.00,North,-999,-999.0,-999.0,58,-99.99,,,-99.99,,2013-09-29 17:43:00,
2013-09-29 12:52:00,74.0,59.0,-100.00,North,-999,-999.0,-999.0,58,-99.99,,,-99.99,,2013-09-29 17:52:00,
2013-09-29 13:22:00,75.0,58.0,-100.00,North,-999,-999.0,-999.0,56,-99.99,,,-99.99,,2013-09-29 18:22:00,
2013-09-29 13:32:00,75.0,58.0,-100.00,North,-999,-999.0,-999.0,56,-99.99,,,-99.99,,2013-09-29 18:32:00,
2013-09-29 13:42:00,75.0,58.0,-100.00,North,-999,-999.0,-999.0,56,-99.99,,,-99.99,,2013-09-29 18:42:00,
2013-09-29 13:52:00,75.0,58.0,-100.00,North,-999,-999.0,-999.0,56,-99.99,,,-99.99,,2013-09-29 18:52:00,
2013-09-29 14:22:00,75.0,59.0,-100.00,North,-999,-999.0,-999.0,58,-99.99,,,-99.99,,2013-09-29 19:22:00,
2013-09-29 14:32:00,75.0,59.0,-100.00,North,-999,-999.0,-999.0,58,-99.99,,,-99.99,,2013-09-29 19:32:00,
2013-09-29 14:42:00,75.0,59.0,-100.00,North,-999,-999.0,-999.0,58,-99.99,,,-99.99,,2013-09-29 19:42:00,
2013-09-29 14:52:00,75.0,59.0,-100.00,North,-999,-999.0,-999.0,58,-99.99,,,-99.99,,2013-09-29 19:52:00,
2013-09-29 15:22:00,78.0,59.0,-100.00,North,-999,-999.0,-999.0,51,-99.99,,,-99.99,,2013-09-29 20:22:00,
2013-09-29 15:32:00,78.0,59.0,-100.00,North,-999,-999.0,-999.0,51,-99.99,,,-99.99,,2013-09-29 20:32:00,
2013-09-29 15:43:00,78.0,59.0,-100.00,North,-999,-999.0,-999.0,51,-99.99,,,-99.99,,2013-09-29 20:43:00,
2013-09-29 15:52:00,78.0,59.0,-100.00,North,-999,-999.0,-999.0,51,-99.99,,,-99.99,,2013-09-29 20:52:00,
2013-09-29 16:21:00,76.0,59.0,-100.00,North,-999,-999.0,-999.0,55,-99.99,,,-99.99,,2013-09-29 21:21:00,
2013-09-29 16:34:00,76.0,59.0,-100.00,North,-999,-999.0,-999.0,55,-99.99,,,-99.99,,2013-09-29 21:34:00,
2013-09-29 16:44:00,76.0,59.0,-100.00,North,-999,-999.0,-999.0,55,-99.99,,,-99.99,,2013-09-29 21:44:00,
2013-09-29 16:54:00,76.0,59.0,-100.00,North,-999,-999.0,-999.0,55,-99.99,,,-99.99,,2013-09-29 21:54:00,
2013-09-29 17:24:00,73.0,59.0,-100.00,North,-999,-999.0,-999.0,61,-99.99,,,-99.99,,2013-09-29 22:24:00,
2013-09-29 17:33:00,73.0,59.0,-100.00,North,-999,-999.0,-999.0,61,-99.99,,,-99.99,,2013-09-29 22:33:00,
2013-09-29 17:43:00,73.0,59.0,-100.00,North,-999,-999.0,-999.0,61,-99.99,,,-99.99,,2013-09-29 22:43:00,
2013-09-29 17:53:00,73.0,59.0,-100.00,North,-999,-999.0,-999.0,61,-99.99,,,-99.99,,2013-09-29 22:53:00,
2013-09-29 18:23:00,72.0,58.0,-100.00,North,-999,-999.0,-999.0,60,-99.99,,,-99.99,,2013-09-29 23:23:00,
2013-09-29 18:34:00,72.0,58.0,-100.00,North,-999,-999.0,-999.0,60,-99.99,,,-99.99,,2013-09-29 23:34:00,
2013-09-29 18:43:00,72.0,58.0,-100.00,North,-999,-999.0,-999.0,60,-99.99,,,-99.99,,2013-09-29 23:43:00,
2013-09-29 18:53:00,72.0,58.0,-100.00,North,-999,-999.0,-999.0,60,-99.99,,,-99.99,,2013-09-29 23:53:00,
2013-09-29 19:22:00,71.0,58.0,-100.00,North,-999,-999.0,-999.0,63,-99.99,,,-99.99,,2013-09-30 00:22:00,
2013-09-29 19:32:00,71.0,58.0,-100.00,North,-999,-999.0,-999.0,63,-99.99,,,-99.99,,2013-09-30 00:32:00,
2013-09-29 19:42:00,71.0,58.0,-100.00,North,-999,-999.0,-999.0,63,-99.99,,,-99.99,,2013-09-30 00:42:00,
2013-09-29 19:52:00,71.0,58.0,-100.00,North,-999,-999.0,-999.0,63,-99.99,,,-99.99,,2013-09-30 00:52:00,
2013-09-29 20:22:00,70.0,59.0,-100.00,North,-999,-999.0,-999.0,67,-99.99,,,-99.99,,2013-09-30 01:22:00,
2013-09-29 20:32:00,70.0,59.0,-100.00,North,-999,-999.0,-999.0,67,-99.99,,,-99.99,,2013-09-30 01:32:00,
2013-09-29 20:42:00,70.0,59.0,-100.00,North,-999,-999.0,-999.0,67,-99.99,,,-99.99,,2013-09-30 01:42:00,
2013-09-29 20:52:00,70.0,59.0,-100.00,North,-999,-999.0,-999.0,67,-99.99,,,-99.99,,2013-09-30 01:52:00,
2013-09-29 21:22:00,68.0,60.0,-100.00,North,-999,-999.0,-999.0,74,-99.99,,,-99.99,,2013-09-30 02:22:00,
2013-09-29 21:32:00,68.0,60.0,-100.00,North,-999,-999.0,-999.0,74,-99.99,,,-99.99,,2013-09-30 02:32:00,
2013-09-29 21:42:00,68.0,60.0,-100.00,North,-999,-999.0,-999.0,74,-99.99,,,-99.99,,2013-09-30 02:42:00,
2013-09-29 21:52:00,68.0,60.0,-100.00,North,-999,-999.0,-999.0,74,-99.99,,,-99.99,,2013-09-30 02:52:00,
2013-09-29 22:22:00,67.0,60.0,-100.00,North,-999,-999.0,-999.0,77,-99.99,,,-99.99,,2013-09-30 03:22:00,
2013-09-29 22:34:00,67.0,60.0,-100.00,North,-999,-999.0,-999.0,77,-99.99,,,-99.99,,2013-09-30 03:34:00,
2013-09-29 22:44:00,67.0,60.0,-100.00,North,-999,-999.0,-999.0,77,-99.99,,,-99.99,,2013-09-30 03:44:00,
2013-09-29 22:55:00,67.0,60.0,-100.00,North,-999,-999.0,-999.0,77,-99.99,,,-99.99,,2013-09-30 03:55:00,
2013-09-29 23:25:00,66.0,60.0,-100.00,North,-999,-999.0,-999.0,80,-99.99,,,-99.99,,2013-09-30 04:25:00,
2013-09-29 23:33:00,66.0,60.0,-100.00,North,-999,-999.0,-999.0,80,-99.99,,,-99.99,,2013-09-30 04:33:00,
2013-09-29 23:44:00,66.0,60.0,-100.00,North,-999,-999.0,-999.0,80,-99.99,,,-99.99,,2013-09-30 04:44:00,
2013-09-29 23:53:00,66.0,60.0,-100.00,North,-999,-999.0,-999.0,80,-99.99,,,-99.99,,2013-09-30 04:53:00,